Weather History for Williamsburg, VA

Change the Weather History Date:

Wednesday, November 21, 2012

  Actual Average Record
Temperature  
Mean Temperature 50 °F -  
Max Temperature 60 °F 60 °F 102 °F (2007)
Min Temperature 39 °F 35 °F 22 °F (1968)
Degree Days  
Heating Degree Days 16    
Moisture  
Dew Point 40 °F    
Average Humidity 77    
Maximum Humidity 93    
Minimum Humidity 45    
Precipitation  
Precipitation 0.00 in - - ()
Sea Level Pressure  
Sea Level Pressure 30.15 in    
Wind  
Wind Speed 3 mph (NNE)    
Max Wind Speed 7 mph    
Max Gust Speed -    
Visibility 8 miles    
Events      
Averages and records for this station are not official NWS values.
T = Trace of Precipitation, MM = Missing Value Source: NWS Daily Summary

Daily Weather History Graph

Daily Weather History Graph

Search for Another Location

Airport:

Trip Planner

Search our weather history database for the weather conditions in past years. The results will help you decide how hot, cold, wet, or windy it might be!

Date:

Astronomy

Nov. 21, 2012 Rise Set
Actual Time 6:52 AM EST 4:52 PM EST
Civil Twilight 6:24 AM EST 5:20 PM EST
Nautical Twilight 5:52 AM EST 5:52 PM EST
Astronomical Twilight 5:21 AM EST 6:23 PM EST
Moon 1:00 PM EST (11/21) 12:17 AM EST (11/21)
Length of Visible Light 10h 56m
Length of Day
10h 00m
First Quarter, 61% of the Moon is Illuminated
Nov 21
First Quarter
Nov 28
Full
Dec 6
Last Quarter
Dec 13
New
Dec 20
First Quarter

Hourly Weather History & Observations

Time (EST) Temp. Windchill Dew Point Humidity Pressure Visibility Wind Dir Wind Speed Gust Speed Precip Events Conditions
12:15 AM 44.6 °F - 42.8 °F 93% 30.12 in 10.0 mi Calm Calm - N/A   Clear
12:35 AM 44.6 °F 43.1 °F 42.8 °F 93% 30.11 in 7.0 mi North 3.5 mph - N/A   Clear
12:55 AM 44.6 °F - 42.8 °F 93% 30.11 in 7.0 mi Calm Calm - N/A   Clear
1:15 AM 44.6 °F - 41.0 °F 87% 30.11 in 7.0 mi Calm Calm - N/A   Clear
1:35 AM 42.8 °F - 41.0 °F 93% 30.12 in 5.0 mi Calm Calm - N/A   Clear
1:55 AM 42.8 °F 41.1 °F 41.0 °F 93% 30.12 in 4.0 mi NNW 3.5 mph - N/A   Clear
2:15 AM 42.8 °F 41.1 °F 39.2 °F 87% 30.12 in 4.0 mi NNW 3.5 mph - N/A   Clear
2:35 AM 42.8 °F 41.1 °F 39.2 °F 87% 30.12 in 3.0 mi North 3.5 mph - N/A   Clear
2:55 AM 42.8 °F 41.1 °F 39.2 °F 87% 30.12 in 4.0 mi North 3.5 mph - N/A   Clear
3:15 AM 42.8 °F 39.3 °F 39.2 °F 87% 30.12 in 4.0 mi North 5.8 mph - N/A   Clear
3:35 AM 42.8 °F 41.1 °F 39.2 °F 87% 30.11 in 3.0 mi North 3.5 mph - N/A   Clear
3:55 AM 41.0 °F 38.0 °F 39.2 °F 93% 30.11 in 4.0 mi North 4.6 mph - N/A   Clear
4:15 AM 41.0 °F 37.1 °F 39.2 °F 93% 30.11 in 4.0 mi North 5.8 mph - N/A   Clear
4:35 AM 41.0 °F 38.0 °F 39.2 °F 93% 30.11 in 4.0 mi NNE 4.6 mph - N/A   Clear
4:55 AM 41.0 °F 38.0 °F 39.2 °F 93% 30.11 in 3.0 mi North 4.6 mph - N/A   Clear
5:15 AM 41.0 °F - 39.2 °F 93% 30.12 in 3.0 mi Calm Calm - N/A   Clear
5:35 AM 39.2 °F 37.0 °F 37.4 °F 93% 30.13 in 3.0 mi North 3.5 mph - N/A   Clear
5:55 AM 39.2 °F 37.0 °F 37.4 °F 93% 30.13 in 3.0 mi North 3.5 mph - N/A   Clear
6:15 AM 39.2 °F 35.9 °F 37.4 °F 93% 30.13 in 2.5 mi North 4.6 mph - N/A   Clear
6:35 AM 39.2 °F 35.9 °F 37.4 °F 93% 30.14 in 3.0 mi North 4.6 mph - N/A   Clear
6:55 AM 39.2 °F 35.9 °F 37.4 °F 93% 30.14 in 2.5 mi North 4.6 mph - N/A   Clear
7:15 AM 39.2 °F 35.9 °F 37.4 °F 93% 30.15 in 2.0 mi North 4.6 mph - N/A   Clear
7:35 AM 39.2 °F - 37.4 °F 93% 30.16 in 2.5 mi Calm Calm - N/A   Clear
7:55 AM 41.0 °F 38.0 °F 39.2 °F 93% 30.16 in 4.0 mi North 4.6 mph - N/A   Clear
8:15 AM 42.8 °F 40.1 °F 39.2 °F 87% 30.16 in 7.0 mi NNE 4.6 mph - N/A   Clear
8:35 AM 44.6 °F 43.1 °F 42.8 °F 93% 30.17 in 10.0 mi NNE 3.5 mph - N/A   Clear
8:55 AM 46.4 °F 44.3 °F 44.6 °F 93% 30.17 in 10.0 mi NE 4.6 mph - N/A   Clear
9:15 AM 48.2 °F - 46.4 °F 93% 30.17 in 10.0 mi NNE 6.9 mph - N/A   Clear
9:35 AM 50.0 °F - 46.4 °F 87% 30.17 in 10.0 mi NE 3.5 mph - N/A   Clear
9:55 AM 53.6 °F - 46.4 °F 77% 30.18 in 10.0 mi NE 4.6 mph - N/A   Clear
10:15 AM 53.6 °F - 44.6 °F 72% 30.18 in 10.0 mi NNE 6.9 mph - N/A   Clear
10:35 AM 55.4 °F - 44.6 °F 67% 30.18 in 10.0 mi NNE 6.9 mph - N/A   Mostly Cloudy
10:55 AM 55.4 °F - 46.4 °F 72% 30.17 in 10.0 mi Calm Calm - N/A   Mostly Cloudy
11:15 AM 55.4 °F - 44.6 °F 67% 30.17 in 10.0 mi Calm Calm - N/A   Mostly Cloudy
11:35 AM 57.2 °F - 44.6 °F 63% 30.16 in 10.0 mi North 6.9 mph - N/A   Mostly Cloudy
11:55 AM 57.2 °F - 44.6 °F 63% 30.16 in 10.0 mi NE 4.6 mph - N/A   Scattered Clouds
12:15 PM 57.2 °F - 44.6 °F 63% 30.15 in 10.0 mi North 4.6 mph - N/A   Scattered Clouds
12:35 PM 59.0 °F - 44.6 °F 59% 30.15 in 10.0 mi North 4.6 mph - N/A   Scattered Clouds
12:55 PM 60.8 °F - 44.6 °F 55% 30.14 in 10.0 mi North 6.9 mph - N/A   Scattered Clouds
1:15 PM 60.8 °F - 44.6 °F 55% 30.14 in 10.0 mi North 3.5 mph - N/A   Scattered Clouds
1:35 PM 60.8 °F - 42.8 °F 52% 30.14 in 10.0 mi North 6.9 mph - N/A   Scattered Clouds
1:55 PM 60.8 °F - 42.8 °F 52% 30.13 in 10.0 mi NNE 6.9 mph - N/A   Clear
2:15 PM 60.8 °F - 42.8 °F 52% 30.13 in 10.0 mi NE 4.6 mph - N/A   Clear
2:35 PM 60.8 °F - 41.0 °F 48% 30.13 in 10.0 mi NE 4.6 mph - N/A   Clear
2:55 PM 60.8 °F - 39.2 °F 45% 30.13 in 10.0 mi NNE 6.9 mph - N/A   Clear
3:15 PM 60.8 °F - 39.2 °F 45% 30.13 in 10.0 mi Calm Calm - N/A   Clear
3:35 PM 59.0 °F - 39.2 °F 48% 30.14 in 10.0 mi NNE 6.9 mph - N/A   Clear
3:55 PM 57.2 °F - 41.0 °F 55% 30.15 in 10.0 mi NNE 3.5 mph - N/A   Clear
4:15 PM 57.2 °F - 39.2 °F 51% 30.15 in 10.0 mi NE 3.5 mph - N/A   Clear
4:35 PM 55.4 °F - 41.0 °F 58% 30.15 in 10.0 mi NNE 4.6 mph - N/A   Clear
4:55 PM 51.8 °F - 39.2 °F 62% 30.16 in 10.0 mi NE 3.5 mph - N/A   Clear
5:15 PM 48.2 °F - 39.2 °F 71% 30.16 in 10.0 mi NE 3.5 mph - N/A   Clear
5:35 PM 48.2 °F - 39.2 °F 71% 30.16 in 10.0 mi NNE 4.6 mph - N/A   Clear
5:55 PM 48.2 °F - 39.2 °F 71% 30.17 in 10.0 mi NNE 3.5 mph - N/A   Clear
6:15 PM 46.4 °F 44.3 °F 39.2 °F 76% 30.17 in 10.0 mi North 4.6 mph - N/A   Clear
6:35 PM 46.4 °F - 39.2 °F 76% 30.18 in 10.0 mi Calm Calm - N/A   Clear
6:55 PM 46.4 °F 44.3 °F 39.2 °F 76% 30.18 in 10.0 mi North 4.6 mph - N/A   Clear
7:15 PM 46.4 °F 44.3 °F 39.2 °F 76% 30.18 in 10.0 mi North 4.6 mph - N/A   Clear
7:35 PM 46.4 °F 44.3 °F 37.4 °F 71% 30.18 in 10.0 mi North 4.6 mph - N/A   Clear
7:55 PM 46.4 °F 44.3 °F 37.4 °F 71% 30.18 in 10.0 mi NNE 4.6 mph - N/A   Clear
8:15 PM 46.4 °F 43.5 °F 37.4 °F 71% 30.18 in 10.0 mi NNE 5.8 mph - N/A   Clear
8:35 PM 44.6 °F 42.2 °F 37.4 °F 76% 30.19 in 10.0 mi NE 4.6 mph - N/A   Clear
8:55 PM 44.6 °F 42.2 °F 35.6 °F 71% 30.19 in 10.0 mi NNE 4.6 mph - N/A   Clear
9:15 PM 44.6 °F 42.2 °F 37.4 °F 76% 30.20 in 10.0 mi NE 4.6 mph - N/A   Clear
9:35 PM 42.8 °F - 37.4 °F 81% 30.20 in 10.0 mi Calm Calm - N/A   Clear
9:55 PM 42.8 °F 41.1 °F 37.4 °F 81% 30.20 in 10.0 mi NNE 3.5 mph - N/A   Clear
10:15 PM 42.8 °F - 37.4 °F 81% 30.20 in 10.0 mi Calm Calm - N/A   Clear
10:35 PM 42.8 °F - 35.6 °F 76% 30.20 in 10.0 mi Calm Calm - N/A   Clear
11:15 PM 41.0 °F 39.0 °F 37.4 °F 87% 30.20 in 10.0 mi North 3.5 mph - N/A   Clear
11:35 PM 41.0 °F 39.0 °F 37.4 °F 87% 30.19 in 10.0 mi NNE 3.5 mph - N/A   Clear
11:55 PM 41.0 °F 38.0 °F 37.4 °F 87% 30.19 in 10.0 mi North 4.6 mph - N/A   Clear